Location: San Gennaro Vesuviano
(40.8833°N, 14.5333°E)
Time: 09:50:56
(UTC+00:00)

USA 215 - Pass Details

Date: 22 April 2021
Orbit: 1101 x 1107 km, 123.0° (Epoch: 07 May)

Event Time Altitude Azimuth Distance (km) Brightness Sun altitude
Exits shadow 19:34:15 17° 82° (E) 2,492 4.7 -18.5°
Maximum altitude 19:38:40 36° 26° (NNE) 1,664 4.3 -19.2°
Drops below altitude 10° 19:44:31 10° 323° (NW) 2,963 6.6 -20.1°
Sets 19:47:11 0° 315° (NW) 3,923 7.7 -20.5°
